Weather History for KHBG - March, 2014

Change the Weather History Date:

Wednesday, March 12, 2014

  Actual Average Record
Temperature  
Mean Temperature 54 °F 58 °F  
Max Temperature 64 °F 71 °F 89 °F (1955)
Min Temperature 43 °F 46 °F 25 °F (1998)
Degree Days  
Heating Degree Days 11 8  
Month to date heating degree days 120 105  
Since 1 July heating degree days 2043 1783  
Cooling Degree Days 0 1  
Month to date cooling degree days 4 12  
Year to date cooling degree days 21 27  
Growing Degree Days 6 (Base 50)    
Moisture  
Dew Point 53 °F    
Average Humidity 72    
Maximum Humidity 100    
Minimum Humidity 43    
Precipitation  
Precipitation 0.00 in 0.16 in 1.86 in (2001)
Month to date precipitation 1.96 2.23  
Year to date precipitation 11.86 13.36  
Sea Level Pressure  
Sea Level Pressure 29.83 in    
Wind  
Wind Speed 11 mph (West)    
Max Wind Speed 25 mph    
Max Gust Speed 33 mph    
Visibility 9 miles    
Events      
T = Trace of Precipitation, MM = Missing Value Source: NWS Daily Summary

Daily Weather History Graph

Daily Weather History Graph

Search for Another Location

Airport or City:

Trip Planner

Search our weather history database for the weather conditions in past years. The results will help you decide how hot, cold, wet, or windy it might be!

Date:

Astronomy

Mar. 12, 2014 Rise Set
Actual Time 7:10 AM CDT 7:03 PM CDT
Civil Twilight 6:46 AM CDT 7:27 PM CDT
Nautical Twilight 6:18 AM CDT 7:55 PM CDT
Astronomical Twilight 5:50 AM CDT 8:23 PM CDT
Moon 3:44 PM CDT (3/12) 4:30 AM CDT (3/12)
Length of Visible Light 12h 40m
Length of Day
11h 52m
Waxing Gibbous, 85% of the Moon is Illuminated
Mar 12
Waxing Gibbous
Mar 16
Full
Mar 23
Last Quarter
Mar 30
New
Apr 7
First Quarter

Hourly Weather History & Observations

Time (CDT) Temp. Dew Point Humidity Pressure Visibility Wind Dir Wind Speed Gust Speed Precip Events Conditions
12:25 AM 61.0 °F 60.1 °F 97% 29.70 in 10.0 mi SSE 10.4 mph - N/A   Scattered Clouds
12:32 AM 61.0 °F 61.0 °F 100% 29.70 in 2.5 mi SSE 8.1 mph - N/A   Mostly Cloudy
12:41 AM 61.0 °F 61.0 °F 100% 29.71 in 1.8 mi South 4.6 mph - N/A   Mostly Cloudy
12:45 AM 61.0 °F 61.0 °F 100% 29.70 in 3.0 mi South 5.8 mph - N/A   Overcast
12:53 AM 61.0 °F 61.0 °F 100% 29.70 in 8.0 mi SSW 5.8 mph - N/A   Overcast
1:38 AM 62.1 °F 61.0 °F 96% 29.73 in 10.0 mi SW 4.6 mph - N/A   Overcast
1:53 AM 62.1 °F 61.0 °F 96% 29.72 in 10.0 mi South 3.5 mph - N/A   Overcast
2:03 AM 62.1 °F 61.0 °F 96% 29.72 in 10.0 mi SSW 3.5 mph - N/A   Overcast
2:11 AM 62.1 °F 61.0 °F 96% 29.72 in 10.0 mi SSW 4.6 mph - N/A   Overcast
2:53 AM 63.0 °F 61.0 °F 93% 29.72 in 10.0 mi WSW 4.6 mph - N/A   Overcast
3:17 AM 62.1 °F 60.1 °F 93% 29.71 in 10.0 mi SW 3.5 mph - N/A   Mostly Cloudy
3:24 AM 62.1 °F 61.0 °F 96% 29.71 in 10.0 mi SSW 3.5 mph - N/A   Mostly Cloudy
3:32 AM 62.1 °F 60.1 °F 93% 29.71 in 10.0 mi SW 3.5 mph - N/A   Mostly Cloudy
3:53 AM 63.0 °F 61.0 °F 93% 29.70 in 10.0 mi West 5.8 mph - N/A   Overcast
4:53 AM 63.0 °F 59.0 °F 87% 29.72 in 10.0 mi WSW 10.4 mph - N/A   Mostly Cloudy
5:08 AM 62.1 °F 59.0 °F 90% 29.73 in 10.0 mi West 8.1 mph - N/A   Overcast
5:33 AM 62.1 °F 57.9 °F 86% 29.74 in 10.0 mi WSW 11.5 mph 18.4 mph N/A   Overcast
5:53 AM 61.0 °F 57.9 °F 90% 29.75 in 10.0 mi West 6.9 mph - N/A   Overcast
6:53 AM 61.0 °F 57.9 °F 90% 29.77 in 10.0 mi West 5.8 mph - N/A   Overcast
7:00 AM 61.0 °F 57.0 °F 87% 29.78 in 10.0 mi West 5.8 mph - N/A   Overcast
7:53 AM 61.0 °F 57.9 °F 90% 29.78 in 10.0 mi West 4.6 mph - N/A   Overcast
8:33 AM 62.1 °F 57.9 °F 86% 29.80 in 10.0 mi West 8.1 mph - N/A   Overcast
8:53 AM 63.0 °F 57.9 °F 84% 29.80 in 10.0 mi Variable 5.8 mph - N/A   Overcast
9:23 AM 63.0 °F 57.9 °F 84% 29.81 in 10.0 mi West 9.2 mph - N/A   Overcast
9:53 AM 63.0 °F 59.0 °F 87% 29.82 in 10.0 mi West 9.2 mph - N/A   Overcast
10:53 AM 63.0 °F 57.9 °F 84% 29.84 in 10.0 mi WNW 11.5 mph - N/A   Overcast
11:04 AM 63.0 °F 57.9 °F 84% 29.85 in 10.0 mi WNW 10.4 mph - N/A   Overcast
11:53 AM 63.0 °F 57.0 °F 81% 29.86 in 10.0 mi WNW 10.4 mph - N/A   Overcast
12:53 PM 62.1 °F 51.1 °F 67% 29.88 in 10.0 mi NW 15.0 mph 25.3 mph N/A   Overcast
1:11 PM 64.0 °F 52.0 °F 65% 29.88 in 10.0 mi NNW 12.7 mph 19.6 mph N/A   Overcast
1:53 PM 62.1 °F 48.0 °F 60% 29.90 in 10.0 mi NW 23.0 mph 27.6 mph N/A   Mostly Cloudy
2:53 PM 62.1 °F 45.0 °F 53% 29.91 in 10.0 mi NW 21.9 mph 28.8 mph N/A   Partly Cloudy
3:53 PM 63.0 °F 42.1 °F 46% 29.93 in 10.0 mi NW 17.3 mph 28.8 mph N/A   Clear
4:53 PM 62.1 °F 39.9 °F 44% 29.95 in 10.0 mi NNW 17.3 mph 29.9 mph N/A   Clear
5:53 PM 59.0 °F 37.0 °F 44% 29.99 in 10.0 mi NNW 19.6 mph 31.1 mph N/A   Clear
6:53 PM 57.0 °F 36.0 °F 45% 30.02 in 10.0 mi NNW 11.5 mph 28.8 mph N/A   Clear
7:53 PM 54.0 °F 34.0 °F 47% 30.07 in 10.0 mi NNW 12.7 mph 19.6 mph N/A   Clear
8:53 PM 52.0 °F 32.0 °F 47% 30.11 in 10.0 mi North 11.5 mph - N/A   Clear
9:53 PM 50.0 °F 32.0 °F 50% 30.14 in 10.0 mi NNW 9.2 mph - N/A   Clear
10:53 PM 48.9 °F 30.9 °F 50% 30.16 in 10.0 mi North 6.9 mph - N/A   Clear
11:53 PM 48.0 °F 32.0 °F 54% 30.18 in 10.0 mi NNW 4.6 mph - N/A   Clear